User: anonymous   Login
Location: Dover
(39.1580°N, 75.5250°W)
Time: 05:05:58
(UTC-05:00)
Language:

SeaSat 1 - Orbit

View from above orbital plane
View from above orbital plane
View from above satellite
View from above satellite

Ground track
Ground track

The orbit data is extracted from the following two-line orbital elements,

1 10967U 78064A   17017.89616963 -.00000006  00000-0  38670-4 0  9997
2 10967 108.0093 345.3753 0001432 260.9993  99.0989 14.43614067 24910
Epoch (UTC): 17 January 2017 21:30:29
Eccentricity: 0.0001432
inclination: 108.0093°
perigee height: 745 km
apogee height: 747 km
right ascension of ascending node: 345.3753°
argument of perigee: 260.9993°
revolutions per day: 14.43614067
mean anomaly at epoch: 99.0989°
orbit number at epoch: 2491

The dashed part of the orbit path shows where the satellite is in the earth's shadow,  

DLR